EW0784 Weather Reports


Display with metric or nautical units.
time (UTC)temp
F
wind
direction
speed
MPH
gust
MPH
rain 1hr
in
rain 24hr
in
rain mn
in
humidity
%
barometer
mb
20260903134523 74 70 0.0 0.0 0.00 0.00 0.00 83 1010.4
20260903133022 73 76 0.0 0.0 0.00 0.00 0.00 87 1010.5
20260903131522 72 88 0.0 0.0 0.00 0.00 0.00 87 1010.6
20260903130021 72 89 2.0 6.0 0.00 0.00 0.00 88 1010.4
20260903124520 70 80 0.0 0.0 0.00 0.00 0.00 90 1010.4
20260903123020 70 91 0.0 0.0 0.00 0.00 0.00 90 1010.4
20260903121520 70 72 0.0 0.0 0.00 0.00 0.00 90 1010.4
20260903120020 70 79 0.0 0.0 0.00 0.00 0.00 89 1010.4
20260903114519 70 115 0.0 4.0 0.00 0.00 0.00 89 1010.3
20260903113024 69 89 2.0 6.0 0.00 0.00 0.00 89 1010.1
20260903111519 69 89 0.0 7.0 0.00 0.00 0.00 88 1010.2
20260903110017 69 105 0.0 7.0 0.00 0.00 0.00 88 1010.5
20260903104516 70 106 0.0 0.0 0.00 0.00 0.00 87 1010.5
20260903103015 70 89 0.0 0.0 0.00 0.00 0.00 87 1010.5
20260903101516 70 91 0.0 2.0 0.00 0.00 0.00 87 1010.1
20260903100012 70 88 0.0 6.0 0.00 0.00 0.00 86 1010.0
20260903094513 70 103 1.0 7.0 0.00 0.00 0.00 86 1010.0
20260903093011 70 89 0.0 0.0 0.00 0.00 0.00 86 1010.1
20260903091511 71 70 0.0 0.0 0.00 0.00 0.00 87 1010.1
20260903090024 70 81 0.0 0.0 0.00 0.00 0.00 87 1010.1
20260903084509 71 46 0.0 0.0 0.00 0.00 0.00 87 1009.9
20260903083006 71 70 0.0 0.0 0.00 0.00 0.00 86 1010.2
20260903081506 71 96 0.0 0.0 0.00 0.00 0.00 86 1010.3
20260903080004 71 74 0.0 0.0 0.00 0.01 0.00 86 1010.4
20260903074501 71 101 0.0 0.0 0.00 0.01 0.00 85 1010.4
20260903073110 72 94 0.0 0.0 0.00 0.01 0.00 84 1010.5
20260903071609 72 71 0.0 0.0 0.00 0.01 0.00 83 1010.5
20260903070056 72 78 0.0 0.0 0.00 0.01 0.00 83 1010.4
20260903064554 73 86 0.0 0.0 0.00 0.01 0.00 83 1010.7
20260903063053 73 113 0.0 0.0 0.00 0.01 0.00 82 1010.8
20260903061556 73 70 0.0 0.0 0.00 0.01 0.00 82 1010.9
20260903060050 73 77 0.0 0.0 0.00 0.01 0.00 82 1010.9
20260903054554 73 86 0.0 0.0 0.00 0.01 0.00 82 1010.8
20260903053051 74 57 0.0 0.0 0.00 0.01 0.00 82 1010.8
20260903051545 74 82 0.0 0.0 0.00 0.01 0.00 81 1011.0
20260903050043 74 87 0.0 0.0 0.00 0.01 0.01 81 1011.1
20260903044543 75 81 0.0 0.0 0.00 0.01 0.01 80 1011.1
20260903043042 75 77 0.0 2.0 0.00 0.01 0.01 79 1011.1
20260903041542 75 82 0.0 0.0 0.00 0.01 0.01 78 1011.1
20260903040040 75 98 0.0 0.0 0.00 0.01 0.01 78 1011.3
20260903034547 75 69 0.0 0.0 0.00 0.01 0.01 78 1011.3
20260903033043 76 85 0.0 1.0 0.00 0.01 0.01 77 1011.3
20260903031550 76 79 0.0 0.0 0.00 0.01 0.01 75 1011.4
20260903030138 76 84 0.0 0.0 0.00 0.01 0.01 74 1011.4
20260903024540 77 99 0.0 0.0 0.00 0.01 0.01 72 1011.3
20260903023038 77 105 0.0 0.0 0.00 0.01 0.01 71 1011.3
20260903021536 77 82 0.0 0.0 0.00 0.01 0.01 69 1011.2
20260903020034 78 88 0.0 0.0 0.00 0.01 0.01 66 1011.1
20260903014548 78 96 0.0 1.0 0.00 0.01 0.01 65 1011.0
20260903013036 79 57 0.0 0.0 0.00 0.01 0.01 64 1010.8
20260903011537 79 66 0.0 0.0 0.00 0.01 0.01 63 1010.8
20260903010032 80 67 0.0 0.0 0.00 0.01 0.01 62 1010.5
20260903004544 81 68 0.0 0.0 0.00 0.01 0.01 60 1010.6
20260903003041 82 104 0.0 0.0 0.00 0.01 0.01 58 1010.7
20260903001532 83 43 0.0 0.0 0.00 0.01 0.01 56 1010.6
20260903000031 84 94 0.0 0.0 0.00 0.01 0.01 55 1010.6
20260902234530 84 105 0.0 0.0 0.00 0.01 0.01 55 1010.6
20260902233030 85 107 0.0 3.0 0.00 0.01 0.01 53 1010.7
20260902231531 85 76 0.0 3.0 0.00 0.01 0.01 53 1010.7
20260902230029 86 89 0.0 4.0 0.00 0.01 0.01 52 1010.7
20260902224528 86 46 0.0 0.0 0.00 0.01 0.01 52 1010.7
20260902223035 86 338 0.0 0.0 0.00 0.01 0.01 51 1010.7
20260902221526 87 85 0.0 0.0 0.00 0.01 0.01 50 1010.7
20260902220025 87 42 0.0 0.0 0.00 0.01 0.01 51 1010.8
20260902214528 88 18 0.0 0.0 0.00 0.01 0.01 49 1010.8
20260902213027 87 136 0.0 4.0 0.00 0.01 0.01 49 1010.8
20260902211520 87 359 0.0 0.0 0.00 0.01 0.01 49 1010.9
20260902210027 87 51 0.0 0.0 0.00 0.01 0.01 49 1011.0
20260902204520 86 120 0.0 4.0 0.00 0.01 0.01 50 1011.0
20260902203025 87 128 0.0 1.0 0.00 0.01 0.01 47 1011.2
20260902201518 86 110 0.0 2.0 0.00 0.01 0.01 49 1011.3
20260902200015 87 189 0.0 0.0 0.00 0.01 0.01 52 1011.4
20260902194510 85 205 0.0 0.0 0.00 0.01 0.01 50 1011.5
20260902193008 85 83 0.0 6.0 0.00 0.01 0.01 49 1011.7
20260902191507 85 295 0.0 0.0 0.00 0.01 0.01 51 1011.8
20260902190006 85 308 0.0 0.0 0.00 0.01 0.01 54 1011.8
20260902184509 83 70 0.0 0.0 0.00 0.01 0.01 58 1012.1
20260902183116 82 72 0.0 0.0 0.00 0.01 0.01 60 1012.2
20260902181559 82 99 0.0 4.0 0.00 0.01 0.01 58 1012.4
20260902180058 82 121 0.0 0.0 0.00 0.01 0.01 58 1012.7
20260902174605 82 242 0.0 1.0 0.00 0.01 0.01 60 1012.8
20260902173054 81 194 0.0 0.0 0.00 0.01 0.01 62 1013.1
20260902171601 81 251 0.0 0.0 0.00 0.01 0.01 64 1012.8
20260902170052 79 274 0.0 0.0 0.00 0.01 0.01 64 1013.0
20260902164552 80 265 0.0 0.0 0.00 0.01 0.01 65 1013.0
20260902163102 80 245 0.0 5.0 0.00 0.01 0.01 64 1013.4
20260902161549 79 91 0.0 3.0 0.00 0.01 0.01 61 1013.0
20260902160047 77 48 0.0 0.0 0.00 0.01 0.01 68 1012.8
20260902154546 78 79 0.0 0.0 0.00 0.01 0.01 67 1012.7
20260902153041 76 107 0.0 0.0 0.00 0.01 0.01 72 1012.7
20260902151548 76 210 0.0 0.0 0.00 0.01 0.01 73 1012.8
20260902150037 75 72 0.0 0.0 0.00 0.01 0.01 75 1012.6
20260902144539 73 89 0.0 0.0 0.00 0.01 0.01 77 1012.7
20260902143030 71 87 0.0 0.0 0.00 0.01 0.01 78 1012.8
20260902141526 70 87 0.0 0.0 0.00 0.01 0.01 81 1012.9
20260902140023 69 77 0.0 0.0 0.00 0.01 0.01 82 1013.0